[[{"header":{"parameterUnit":"m.s-1","parameterCategory":1,"la1":30.2991,"la2":30.254,"lo1":-89.0895,"lo2":-89.0444,"dy":0.0017,"dx":0.0017,"nx":28,"ny":28,"refTime":"2024-12-08T03:00:00:Z","depth":0,"parameterNumber":2,"parameterNumberName":"U-component_of_WINDS"},"data":[0,0,0,0,0,0,0,0,0,0,0,0,0,0,0,0,0,0,0,0,0,0,0,0,0,0,0,0,0,0,0,0,0,0,0,0,0,0,0,0,0,0,0,0,0,0,0,0,0,0,0,0,0,0,0,0,0,0,-3.1005,-3.1006,0,-3.1058,-3.1058,-3.1059,-3.1066,-3.1065,-3.1065,-3.1064,-3.1116,-3.1118,-3.112,0,0,0,0,0,0,0,0,0,0,0,0,0,-3.0912,-3.0913,-3.1005,-3.1006,-3.1007,-3.1057,-3.1058,-3.1059,-3.1066,-3.1065,-3.1065,-3.1064,-3.1115,-3.1118,-3.112,0,0,0,0,0,0,0,0,0,0,0,0,0,-3.0957,-3.0914,-3.1005,-3.1016,-3.1018,-3.1057,-3.1058,-3.1059,-3.1066,-3.1065,-3.1065,-3.1064,-3.1115,-3.1117,-3.112,-3.1152,0,0,-3.1129,-3.113,0,0,0,0,0,0,0,0,-3.0954,-3.096,-3.1014,-3.1016,-3.1017,-3.1054,-3.1044,-3.109,-3.1066,-3.1048,-3.1064,-3.1064,-3.1096,-3.11,-3.1112,-3.1154,-3.1156,-3.1129,-3.113,-3.1132,-3.1132,0,0,0,0,0,0,0,-3.0951,-3.0958,-3.1026,-3.1015,-3.1017,-3.1019,-3.1024,-3.1053,-3.1075,-3.1049,-3.105,-3.1056,-3.1097,-3.1109,-3.1113,-3.1157,-3.1129,-3.1131,-3.1133,-3.1134,-3.123,-3.123,0,0,0,0,0,0,-3.0946,-3.0955,-3.1024,-3.1027,-3.0983,-3.1021,-3.1027,-3.1043,-3.1075,-3.1079,-3.1057,-3.1056,-3.1105,-3.111,-3.1115,-3.1154,-3.1132,-3.1134,-3.1136,-3.1229,-3.123,-3.1231,0,0,0,0,0,0,-3.0944,-3.0952,-3.1022,-3.0992,-3.1001,-3.1023,-3.1041,-3.1045,-3.1057,-3.1081,-3.1084,-3.1065,-3.1104,-3.1111,-3.1143,-3.1156,-3.1135,-3.1138,-3.1228,-3.1229,-3.123,-3.1232,0,0,0,0,0,0,-3.0941,-3.0951,-3.0963,-3.0992,-3.1002,-3.1049,-3.1042,-3.1046,-3.1062,-3.1062,-3.1089,-3.1093,-3.1104,-3.1139,-3.1146,-3.1159,-3.114,-3.1226,-3.1228,-3.123,-3.1231,-3.1234,-3.1236,0,0,0,0,0,-3.0938,-3.0961,-3.0964,-3.0972,-3.1018,-3.105,-3.1056,-3.1068,-3.1063,-3.1075,-3.1091,-3.1092,-3.1154,-3.1142,-3.115,-3.1164,-3.1226,-3.1228,-3.123,-3.123,-3.1233,-3.1236,0,0,0,0,0,0,-3.0932,-3.0965,-3.0968,-3.1002,-3.1023,-3.1051,-3.1067,-3.1071,-3.1094,-3.1093,-3.1107,-3.1114,-3.1145,-3.1158,-3.1144,-3.1197,-3.1189,-3.1193,-3.1187,-3.119,-3.1192,-3.1187,-3.1142,0,0,0,0,0,-3.0935,-3.0959,-3.0986,-3.1013,-3.1024,-3.1044,-3.1058,-3.1066,-3.1089,-3.1097,-3.1115,-3.1137,-3.1161,-3.1177,-3.12,-3.1234,-3.124,-3.1248,-3.1251,-3.1252,-3.1255,-3.1274,-3.1278,-3.1237,-3.1237,-3.1237,0,0,-3.094,-3.0962,-3.0975,-3.1012,-3.103,-3.1054,-3.1051,-3.1076,-3.1094,-3.1101,-3.1132,-3.1147,-3.1172,-3.1205,-3.1221,-3.1217,-3.1268,-3.1255,-3.1256,-3.1258,-3.1277,-3.1281,-3.1284,-3.1239,-3.1238,-3.1238,0,0,-3.0963,-3.0981,-3.1006,-3.1024,-3.1051,-3.1065,-3.1071,-3.1099,-3.1109,-3.1141,-3.1147,-3.1169,-3.1211,-3.1229,-3.1243,-3.1275,-3.1278,-3.1283,-3.1294,-3.1313,-3.1316,-3.1319,-3.133,-3.1334,-3.1286,-3.1286,-3.1286,0,-3.0965,-3.1002,-3.1017,-3.1043,-3.1059,-3.1069,-3.1094,-3.1111,-3.1144,-3.1155,-3.1151,-3.1205,-3.1222,-3.126,-3.1268,-3.128,-3.1287,-3.1278,-3.1314,-3.1317,-3.132,-3.1331,-3.1335,-3.1286,-3.1286,-3.1286,-3.1286,0,-3.1005,-3.103,-3.1047,-3.108,-3.1098,-3.1123,-3.1143,-3.116,-3.1167,-3.1182,-3.1215,-3.1237,-3.1266,-3.1276,-3.1283,-3.1315,-3.1312,-3.1311,-3.1303,-3.1324,-3.1334,-3.1339,-3.1287,-3.1286,-3.1286,-3.1286,0,0,-3.1021,-3.1065,-3.107,-3.1086,-3.1118,-3.1138,-3.1165,-3.1194,-3.1208,-3.1232,-3.1254,-3.129,-3.129,-3.1307,-3.1317,-3.1334,-3.1358,-3.1331,-3.1332,-3.1334,-3.1395,-3.1394,-3.1398,-3.1361,-3.1362,-3.1362,-3.1392,0,-3.1046,-3.1093,-3.1109,-3.1148,-3.1172,-3.1183,-3.1206,-3.1228,-3.1243,-3.1266,-3.1282,-3.1308,-3.1306,-3.1316,-3.1334,-3.1351,-3.137,-3.1349,-3.1381,-3.1382,-3.1372,-3.1404,-3.1403,-3.143,-3.1396,-3.1397,-3.1398,0,-3.1081,-3.1106,-3.1148,-3.1178,-3.1189,-3.1209,-3.1238,-3.126,-3.1286,-3.1296,-3.1316,-3.1325,-3.1353,-3.1346,-3.1385,-3.1371,-3.1385,-3.1396,-3.1398,-3.1399,-3.1389,-3.1405,-3.1439,-3.1442,-3.1404,-3.1404,-3.1403,0,-3.1088,-3.1133,-3.1163,-3.1177,-3.1213,-3.1227,-3.1243,-3.1269,-3.1286,-3.1312,-3.1323,-3.1351,-3.1366,-3.1388,-3.1405,-3.1398,-3.1443,-3.1437,-3.1452,-3.1451,-3.1458,-3.1457,-3.1493,-3.1471,-3.1471,-3.1471,-3.147,0,-3.1113,-3.1138,-3.1167,-3.1186,-3.1215,-3.1233,-3.1261,-3.1278,-3.1301,-3.1323,-3.1335,-3.1356,-3.1378,-3.1402,-3.1415,-3.1446,-3.1453,-3.1461,-3.1464,-3.1459,-3.1458,-3.1467,-3.1465,-3.1472,-3.1471,-3.1471,-3.1471,0,-3.1125,-3.1146,-3.118,-3.1213,-3.1222,-3.1241,-3.1269,-3.1288,-3.1305,-3.1333,-3.1341,-3.1366,-3.1395,-3.1415,-3.1452,-3.1461,-3.1494,-3.1498,-3.1485,-3.1486,-3.15,-3.1498,-3.1541,-3.1548,-3.1522,-3.1522,-3.1522,0,-3.1139,-3.1158,-3.1194,-3.121,-3.1226,-3.1252,-3.127,-3.129,-3.1308,-3.1341,-3.1356,-3.1386,-3.1411,-3.1457,-3.1478,-3.1507,-3.1511,-3.1524,-3.1515,-3.1509,-3.151,-3.1508,-3.151,-3.1525,-3.1525,-3.1525,-3.1525,0,-3.1161,-3.1171,-3.1196,-3.1226,-3.1247,-3.1271,-3.1295,-3.1308,-3.1333,-3.1353,-3.1383,-3.1402,-3.1441,-3.1471,-3.1502,-3.1519,-3.1526,-3.1529,-3.1533,-3.1527,-3.1519,-3.1523,-3.1487,-3.1527,-3.1526,-3.1526,-3.1526,-3.1526,-3.1173,-3.1191,-3.122,-3.1248,-3.1269,-3.1292,-3.1311,-3.1331,-3.1357,-3.139,-3.1401,-3.1432,-3.146,-3.1503,-3.152,-3.1545,-3.1544,-3.1551,-3.1552,-3.1553,-3.1553,-3.1517,-3.1551,-3.1551,-3.1551,-3.1551,-3.1551,0,-3.1195,-3.1214,-3.1241,-3.1275,-3.1297,-3.1304,-3.1332,-3.135,-3.1378,-3.1403,-3.1428,-3.1463,-3.1493,-3.1518,-3.1549,-3.1564,-3.1568,-3.1571,-3.1569,-3.1573,-3.1553,-3.1545,-3.1567,-3.1567,-3.1567,-3.1567,-3.1567,-3.1567,-3.1209,-3.124,-3.1254,-3.1296,-3.1315,-3.1346,-3.1361,-3.1383,-3.1403,-3.1442,-3.1467,-3.1484,-3.151,-3.1543,-3.157,-3.1577,-3.1587,-3.1589,-3.1597,-3.1576,-3.1574,-3.1573,-3.1565,-3.1592,-3.1592,-3.1615,-3.1615,-3.1615]},{"header":{"parameterUnit":"m.s-1","parameterCategory":1,"la1":30.2991,"la2":30.254,"lo1":-89.0895,"lo2":-89.0444,"dy":0.0017,"dx":0.0017,"nx":28,"ny":28,"refTime":"2024-12-08T03:00:00:Z","depth":0,"parameterNumber":3,"parameterNumberName":"V-component_of_WINDS"},"data":[0,0,0,0,0,0,0,0,0,0,0,0,0,0,0,0,0,0,0,0,0,0,0,0,0,0,0,0,0,0,0,0,0,0,0,0,0,0,0,0,0,0,0,0,0,0,0,0,0,0,0,0,0,0,0,0,0,0,2.7719,2.7718,0,2.766,2.7659,2.7658,2.7577,2.7576,2.7575,2.7573,2.7515,2.7515,2.7514,0,0,0,0,0,0,0,0,0,0,0,0,0,2.7766,2.7766,2.7719,2.7718,2.7717,2.766,2.7659,2.7658,2.7578,2.7576,2.7574,2.7573,2.7515,2.7515,2.7514,0,0,0,0,0,0,0,0,0,0,0,0,0,2.773,2.7766,2.7719,2.767,2.7665,2.766,2.7659,2.7658,2.7578,2.7576,2.7574,2.7572,2.7515,2.7515,2.7514,2.7553,0,0,2.7513,2.7513,0,0,0,0,0,0,0,0,2.7732,2.7729,2.7678,2.7674,2.7668,2.7624,2.7654,2.7623,2.7578,2.7611,2.7573,2.7571,2.7553,2.7549,2.7543,2.755,2.7547,2.7513,2.7513,2.7512,2.7512,0,0,0,0,0,0,0,2.7735,2.7731,2.7695,2.7678,2.7671,2.7653,2.7645,2.7648,2.7594,2.7608,2.7602,2.7596,2.755,2.7543,2.7541,2.7546,2.7513,2.7512,2.7512,2.7512,2.7586,2.7588,0,0,0,0,0,0,2.7744,2.7733,2.7697,2.7694,2.7696,2.7653,2.7645,2.764,2.7594,2.7585,2.7598,2.7593,2.7545,2.7541,2.7538,2.7583,2.7512,2.7512,2.7512,2.7584,2.7587,2.7589,0,0,0,0,0,0,2.7746,2.7742,2.77,2.7712,2.7705,2.7655,2.765,2.764,2.7633,2.7586,2.7577,2.7601,2.7543,2.7539,2.755,2.758,2.7512,2.7511,2.7581,2.7585,2.7588,2.7671,0,0,0,0,0,0,2.7747,2.7743,2.7756,2.7713,2.7705,2.7712,2.7651,2.764,2.7633,2.7625,2.7586,2.7578,2.7541,2.7551,2.755,2.7578,2.7511,2.7578,2.7583,2.7587,2.7666,2.7677,2.7687,0,0,0,0,0,2.7749,2.7781,2.7757,2.7753,2.772,2.7714,2.7709,2.7665,2.7635,2.7649,2.7619,2.7579,2.7576,2.7553,2.7551,2.7579,2.7576,2.7582,2.7586,2.7661,2.7675,2.7687,0,0,0,0,0,0,2.7829,2.7775,2.7747,2.7766,2.7745,2.77,2.7716,2.7681,2.7669,2.7662,2.7609,2.7601,2.762,2.76,2.7575,2.7616,2.7571,2.7576,2.7628,2.7641,2.7651,2.7657,2.7511,0,0,0,0,0,2.7849,2.7848,2.78,2.7821,2.7812,2.7766,2.7762,2.773,2.7707,2.7698,2.7668,2.7648,2.7643,2.764,2.7632,2.7662,2.7654,2.7681,2.7691,2.77,2.7706,2.7723,2.7736,2.7605,2.7605,2.7605,0,0,2.789,2.786,2.7862,2.7837,2.7817,2.7819,2.7759,2.7762,2.7764,2.7698,2.7708,2.7686,2.766,2.7682,2.769,2.7666,2.774,2.7706,2.7714,2.7715,2.773,2.7742,2.7753,2.7609,2.7608,2.7608,0,0,2.7966,2.7942,2.7958,2.794,2.7911,2.788,2.7885,2.7845,2.7829,2.7837,2.7789,2.779,2.7781,2.7766,2.7757,2.783,2.7794,2.7829,2.7885,2.7903,2.7913,2.7922,2.7951,2.7962,2.7834,2.7834,2.7834,0,2.8021,2.802,2.7972,2.7979,2.7971,2.7911,2.7929,2.7914,2.7884,2.7881,2.7854,2.7844,2.7822,2.7841,2.7859,2.7852,2.7858,2.7834,2.7915,2.7924,2.7931,2.7959,2.797,2.7839,2.7838,2.7838,2.7837,0,2.8091,2.8091,2.8109,2.8082,2.8075,2.8088,2.8043,2.8042,2.8012,2.7985,2.7996,2.7968,2.7955,2.7957,2.7926,2.7973,2.7959,2.7925,2.7879,2.7949,2.7975,2.7984,2.7845,2.7844,2.7842,2.7841,0,0,2.8216,2.8163,2.8171,2.816,2.8124,2.8124,2.8135,2.8123,2.8125,2.8106,2.8116,2.8111,2.808,2.807,2.8038,2.8053,2.8117,2.8017,2.8015,2.8039,2.8171,2.8199,2.8212,2.8093,2.8094,2.8096,2.8174,0,2.8287,2.8303,2.8261,2.8288,2.829,2.8234,2.8244,2.8225,2.82,2.8199,2.8172,2.8171,2.8127,2.8122,2.8134,2.8107,2.8143,2.81,2.8104,2.8105,2.8115,2.8224,2.8254,2.8329,2.8183,2.8185,2.8186,0,2.8373,2.836,2.8388,2.8353,2.8353,2.8362,2.8349,2.8348,2.8326,2.8307,2.8297,2.826,2.827,2.8225,2.824,2.8212,2.8211,2.8198,2.82,2.8201,2.8152,2.8231,2.8351,2.8364,2.82,2.8199,2.8198,0,2.8466,2.8455,2.8471,2.8463,2.8422,2.8431,2.8415,2.839,2.8386,2.8375,2.8372,2.8362,2.8358,2.8351,2.8313,2.8283,2.8335,2.8285,2.8322,2.8324,2.8338,2.8338,2.8463,2.8332,2.8332,2.8332,2.8332,0,2.8552,2.8572,2.8513,2.8523,2.8545,2.8496,2.8519,2.8497,2.8477,2.8483,2.8434,2.8441,2.8389,2.8391,2.8361,2.8381,2.8378,2.8365,2.8358,2.8372,2.8374,2.8372,2.8367,2.8335,2.8334,2.8334,2.8333,0,2.866,2.8621,2.8635,2.8596,2.8587,2.8605,2.8572,2.8581,2.8554,2.8563,2.8562,2.852,2.852,2.8481,2.8473,2.8453,2.8487,2.8468,2.8495,2.849,2.8531,2.8529,2.8662,2.8678,2.8534,2.8536,2.8537,0,2.872,2.8734,2.8697,2.8697,2.8684,2.8685,2.8681,2.8635,2.8633,2.861,2.8623,2.8619,2.8614,2.8618,2.8587,2.8582,2.8565,2.8611,2.8564,2.8578,2.857,2.8571,2.8574,2.8623,2.8624,2.8626,2.8627,0,2.883,2.8811,2.8806,2.8797,2.8794,2.8784,2.8771,2.8774,2.8724,2.8725,2.8725,2.8721,2.8714,2.8712,2.8701,2.8686,2.865,2.8642,2.8651,2.8667,2.8684,2.8679,2.8526,2.864,2.8638,2.8638,2.8637,2.8636,2.8918,2.893,2.8906,2.8904,2.889,2.8879,2.8887,2.8861,2.8859,2.885,2.8822,2.8828,2.8808,2.879,2.8778,2.8783,2.876,2.8772,2.8775,2.878,2.879,2.868,2.878,2.878,2.8779,2.8779,2.8779,0,2.903,2.9012,2.9011,2.8995,2.8994,2.8958,2.8942,2.8945,2.895,2.8934,2.893,2.8932,2.8931,2.89,2.8896,2.8906,2.8889,2.8907,2.8907,2.8905,2.8808,2.8803,2.892,2.892,2.892,2.892,2.892,2.892,2.9088,2.9107,2.9085,2.9097,2.9079,2.9084,2.9078,2.9069,2.9057,2.9061,2.9059,2.9039,2.9018,2.9012,2.901,2.9001,2.9004,2.9027,2.9014,2.8925,2.8911,2.8898,2.8893,2.9027,2.9028,2.911,2.9111,2.9112]}]]